Flag for Germany Weather past 2 weeks in Dormagen, North Rhine-Westphalia, Germany

Now
46 °F

Partly cloudy.


Feels Like: 42 °F
Forecast: 36 / 53 °F
Wind: 9 mph from North

Location: Duesseldorf

Current Time: Apr 27, 2015 at 11:06:22 PM

Latest Report: Apr 27, 2015 at 10:20 PM


Visibility: N/A

Pressure: 29.83 "Hg

Humidity: 71%

Dew point: 37 °F

Location of DormagenLocation

Historic Weather in Dormagen — Graph

°F

Dormagen temperature yesterday

Maximum temperature yesterday: 63 °F (at 3:50 PM)
Minimum temperature yesterday: 52 °F (at 12:20 AM)
Average temperature yesterday: 57 °F

Past Weeks' High & Low Weather Summary

 TemperatureHumidityPressure
High75 °F (Apr 15, 3:20 PM)100% (Apr 23, 6:20 AM)30.48 "Hg (Apr 23, 6:20 AM)
Low36 °F (Apr 18, 4:50 AM)23% (Apr 21, 3:20 PM)29.62 "Hg (Apr 27, 2:20 AM)
Average53 °F65%30.11 "Hg
* Reported Apr 12 9:20 PM — Apr 27 9:50 PM, Dormagen, Weather by CustomWeather, © 2015

Note: Actual official high and low records may vary slightly from our data, if they occured in-between our weather recording intervals... More about our weather records

Advertising

Dormagen weather history for previous 24 hours

 ConditionsComfort  
Time TempWeatherWind HumidityBarometerVisibility
9:50 PM
Mon, Apr 27
46 °FPartly cloudy.5 mph82%29.80 "HgN/A
9:20 PM46 °FBroken clouds.3 mph82%29.80 "HgN/A
8:50 PM48 °FBroken clouds.5 mph71%29.80 "HgN/A
8:20 PM50 °FBroken clouds.5 mph67%29.77 "HgN/A
7:50 PM50 °FPartly sunny.5 mph67%29.77 "HgN/A
7:20 PM50 °FBroken clouds.6 mph67%29.77 "HgN/A
6:50 PM52 °FBroken clouds.6 mph62%29.77 "HgN/A
6:20 PM52 °FBroken clouds.7 mph62%29.77 "HgN/A
5:50 PM52 °FBroken clouds.9 mph62%29.77 "HgN/A
5:20 PM52 °FPartly sunny.10 mph58%29.77 "HgN/A
4:50 PM52 °FBroken clouds.10 mph62%29.77 "HgN/A
4:20 PM52 °FPartly sunny.10 mph62%29.77 "HgN/A
3:50 PM50 °FBroken clouds.12 mph67%29.77 "HgN/A
3:20 PM50 °FPartly sunny.15 mph67%29.77 "HgN/A
2:50 PM50 °FPartly sunny.10 mph67%29.77 "HgN/A
2:20 PM50 °FPartly sunny.10 mph67%29.77 "HgN/A
1:50 PM50 °FBroken clouds.13 mph67%29.77 "HgN/A
1:20 PM50 °FPartly sunny.16 mph67%29.74 "HgN/A
12:50 PM50 °FBroken clouds.16 mph67%29.74 "HgN/A
12:20 PM48 °FPartly sunny.13 mph76%29.74 "HgN/A
11:50 AM48 °FBroken clouds.15 mph82%29.74 "HgN/A
11:20 AM48 °FBroken clouds.13 mph82%29.74 "HgN/A
10:50 AM46 °FBroken clouds.14 mph87%29.74 "HgN/A
10:20 AM46 °FPartly sunny.15 mph87%29.71 "HgN/A
9:50 AM46 °FPartly sunny.13 mph87%29.71 "HgN/A
9:20 AM46 °FPartly sunny.14 mph87%29.71 "HgN/A
8:50 AM46 °FPartly sunny.14 mph87%29.68 "HgN/A
8:20 AM46 °FPartly sunny.13 mph93%29.68 "Hg5 mi
7:50 AM46 °FDrizzle. Fog.12 mph93%29.68 "Hg4 mi
7:20 AM46 °FDrizzle. Fog.9 mph93%29.68 "Hg2 mi
6:50 AM46 °FDrizzle. Fog.9 mph93%29.65 "Hg2 mi
6:20 AM46 °FLight rain. Passing clouds.13 mph93%29.65 "Hg4 mi
5:50 AM48 °FLight rain. Passing clouds.10 mph94%29.65 "Hg4 mi
5:20 AM48 °FLight rain. Passing clouds.12 mph94%29.65 "Hg5 mi
4:50 AM50 °FLight rain. Passing clouds.12 mph94%29.62 "Hg5 mi
4:20 AM50 °FLight rain. Passing clouds.9 mph100%29.62 "Hg5 mi
3:50 AM52 °FLight rain. Passing clouds.9 mph94%29.62 "Hg5 mi
3:20 AM52 °FLight rain. Passing clouds.6 mph94%29.62 "Hg4 mi
2:50 AM52 °FRain. Mostly cloudy.8 mph94%29.62 "Hg4 mi
2:20 AM52 °FRain. Passing clouds.10 mph94%29.62 "Hg3 mi
1:50 AM52 °FRain. Fog.9 mph100%29.65 "Hg3 mi
1:20 AM54 °FRain. Passing clouds.9 mph94%29.65 "Hg3 mi
12:50 AM54 °FLight rain. Partly cloudy.7 mph94%29.65 "Hg5 mi
12:20 AM54 °FRain. Partly cloudy.5 mph94%29.65 "Hg6 mi
11:50 PM
Sun, Apr 26
54 °FLight rain. Passing clouds.3 mph94%29.65 "HgN/A
11:20 PM54 °FLight rain. Partly cloudy.3 mph94%29.65 "HgN/A
Weather by CustomWeather, © 2015

See weather overviewHow to use our weather pages